Location: Newark
(41.6500°N, 71.4833°W)
Time: 10:53:43
(UTC+00:00)

deb Explorer IX - Pass Details

Date: 02 February 2020
Orbit: 549 x 1099 km, 38.8° (Epoch: 19 February)

Event Time Altitude Azimuth Distance (km) Brightness Sun altitude
Rises 03:08:42 0° 275° (W) 3,660 ? -55.8°
Enters shadow 03:09:00 - 275° (W) 3,557 ? -55.8°
Reaches altitude 10° 03:11:17 10° 272° (W) 2,777 - -56.2°
Maximum altitude 03:17:59 58° 195° (SSW) 1,231 - -57.1°
Drops below altitude 10° 03:25:07 10° 119° (ESE) 2,945 - -58.1°
Sets 03:27:56 0° 115° (ESE) 3,895 - -58.5°
